FALCON HEAVY R/B, 55265

Orbit data source: Space-Track

FALCON HEAVY R/B, 55265 is space debris in GEO originally from a launch on Sun, 15 Jan 2023 UTC launched from the Air Force Eastern Test Range (AFETR). Debris objects in space refer to the collection of defunct objects orbiting the Earth. Examples of debris include non-operational satellites, rocket bodies, and fragments generated from explosions, collisions, or faulty payload assembly.

Not visible in the next 10 days
Identifier
55265, 2023-008C
Orbit
GEO
Country
Flag of USUS
Related business
Manufacturer
SpaceX
Mission
Spacecraft
Bus & Motor
F9ST2, Unknown motor
Mass
~4,000 kg wet, ~4,000 kg dry
Launch date (UTC)
2023-01-15 (3 years ago)
Launch vehicle
Unknown
Launch site
Air Force Eastern Test Range (AFETR)
Object type
Payload
Rocket body
Debris
Shape & HBR
Cyl, Unknown HBR
Radar Cross Section
49.816 m²

Expand to show TLE details & history
Last TLE update: 12 hours ago

TLE from 12 hours ago
0 FALCON HEAVY R/B
1 55265U 23008C   26105.41209491 -.00000164  00000-0  00000-0 0  9992
2 55265   2.7216  76.2226 0053581  74.8508 286.0200  1.03135554  7240
Epoch: 2026-04-15T09:53Z
TLE epoch observation values (Epoch: 2026-04-15T09:53:25.000Z)
Latitude
-0°
Longitude
84.56494°
Altitude
34,942.98 km
Speed
3.108 km/s
True Right ascension
05h 05m 58s
True Declination
0° 00' 00"
Sunlit
Object was in daylight at epoch
Visualization orbit readout
Latitude
Unknown
Longitude
Unknown
Altitude
Unknown
Speed
Unknown
Apparent Right ascension
Unknown
Apparent Declination
Unknown
Sunlit
N/A
Visualization observer readout
Local Sidereal Time
04:39:28
Azimuth
Unknown
Elevation
Unknown
Doppler factor
Unknown
Orbital elements
Apogee altitude
35,225.224 km
Perigee altitude
34,781.77 km
Semi-major axis
41,381.634 km
Eccentricity
0.00536
Inclination
2.7216°
RAAN
76.2226°
Arg. of periapsis
74.8508°
True anomaly
285.42877°
Mean anomaly
286.02°
Eccentric anomaly
285.72449°
Mean motion
0.25783 °/min
Orbital period
1,396.27 mins
BSTAR
0
Loading maneuver chart data...
Computing Atmospheric mass density...
Loading historical data...
Loading historical data...
Loading historical data...
Loading historical data...
Loading historical data...
Loading historical data...
Loading historical data...
Other satellites on launch #8 in the year 2023 (2023-01-15 UTC)

Documentation

Showing up to 5 results
|